Weather History for Watertown, NY

Change the Weather History Date:

Wednesday, November 9, 2011

  Actual Average Record
Temperature  
Mean Temperature 53 °F 41 °F  
Max Temperature 71 °F 50 °F 71 °F (2011)
Min Temperature 34 °F 32 °F 13 °F (2003)
Degree Days  
Heating Degree Days 12 24  
Month to date heating degree days 177 207  
Since 1 July heating degree days 771 1003  
Cooling Degree Days 0 0  
Month to date cooling degree days 0 0  
Year to date cooling degree days 513 362  
Growing Degree Days 2 (Base 50)    
Moisture  
Dew Point 37 °F    
Average Humidity 64    
Maximum Humidity 100    
Minimum Humidity 27    
Precipitation  
Precipitation 0.00 in 0.11 in 0.70 in (2005)
Month to date precipitation T 1.11  
Year to date precipitation 36.02 30.28  
Sea Level Pressure  
Sea Level Pressure 30.00 in    
Wind  
Wind Speed 6 mph (SSE)    
Max Wind Speed 17 mph    
Max Gust Speed 26 mph    
Visibility 7 miles    
Events Fog    
T = Trace of Precipitation, MM = Missing Value Source: NWS Daily Summary

Daily Weather History Graph

Daily Weather History Graph

Search for Another Location

Airport:

Trip Planner

Search our weather history database for the weather conditions in past years. The results will help you decide how hot, cold, wet, or windy it might be!

Date:

Astronomy

Nov. 09, 2011 Rise Set
Actual Time 6:50 AM EST 4:44 PM EST
Civil Twilight 6:20 AM EST 5:15 PM EST
Nautical Twilight 5:45 AM EST 5:49 PM EST
Astronomical Twilight 5:11 AM EST 6:23 PM EST
Moon 3:54 PM EST (11/9) 5:44 AM EST (11/9)
Length of Visible Light 10h 55m
Length of Day
9h 53m
Waxing Gibbous, 99% of the Moon is Illuminated
Nov 9
Waxing Gibbous
Nov 10
Full
Nov 18
Last Quarter
Nov 25
New
Dec 2
First Quarter

Hourly Weather History & Observations

Time (EST) Temp. Windchill Dew Point Humidity Pressure Visibility Wind Dir Wind Speed Gust Speed Precip Events Conditions
12:03 AM 41.0 °F 38.0 °F 39.2 °F 93% 30.11 in 0.5 mi East 4.6 mph - N/A Fog Fog
12:17 AM 41.0 °F 38.0 °F 39.2 °F 93% 30.11 in 1.8 mi NE 4.6 mph - N/A   Clear
12:24 AM 41.0 °F - 39.2 °F 93% 30.11 in 3.0 mi Calm Calm - N/A   Clear
12:35 AM 42.8 °F 41.1 °F 41.0 °F 93% 30.11 in 2.0 mi Variable 3.5 mph - N/A   Clear
12:56 AM 39.9 °F - 39.9 °F 100% 30.11 in 1.5 mi Calm Calm - N/A   Clear
1:31 AM 39.2 °F - 37.4 °F 93% 30.10 in 0.8 mi Calm Calm - N/A   Mist
1:56 AM 37.4 °F - 35.6 °F 93% 30.10 in 0.8 mi Calm Calm - N/A   Mist
2:07 AM 37.4 °F - 37.4 °F 100% 30.10 in 0.2 mi Calm Calm - N/A Fog Fog
2:35 AM 35.6 °F - 35.6 °F 100% 30.10 in 0.5 mi Calm Calm - N/A Fog Fog
2:56 AM 36.0 °F 31.1 °F 36.0 °F 100% 30.10 in 0.5 mi East 5.8 mph - N/A Fog Fog
3:01 AM 37.4 °F 33.8 °F 35.6 °F 93% 30.09 in 1.2 mi East 4.6 mph - N/A   Partly Cloudy
3:09 AM 35.6 °F - 35.6 °F 100% 30.09 in 2.5 mi Calm Calm - N/A   Partly Cloudy
3:16 AM 35.6 °F - 33.8 °F 93% 30.09 in 3.0 mi Calm Calm - N/A   Clear
3:56 AM 35.1 °F - 34.0 °F 96% 30.08 in 7.0 mi Calm Calm - N/A   Clear
4:56 AM 37.0 °F 34.5 °F 35.1 °F 93% 30.08 in 8.0 mi NNW 3.5 mph - N/A   Clear
5:56 AM 48.0 °F - 42.1 °F 80% 30.07 in 10.0 mi SSE 3.5 mph - N/A   Clear
6:56 AM 48.9 °F - 42.1 °F 77% 30.07 in 10.0 mi Calm Calm - N/A   Clear
7:56 AM 48.9 °F - 44.1 °F 83% 30.08 in 10.0 mi Calm Calm - N/A   Clear
8:56 AM 59.0 °F - 45.0 °F 60% 30.06 in 10.0 mi South 6.9 mph - N/A   Clear
9:56 AM 63.0 °F - 43.0 °F 48% 30.04 in 10.0 mi Variable 6.9 mph 19.6 mph N/A   Clear
10:56 AM 64.9 °F - 41.0 °F 42% 30.03 in 10.0 mi South 8.1 mph - N/A   Clear
11:56 AM 66.9 °F - 39.9 °F 37% 29.98 in 10.0 mi SSE 8.1 mph 16.1 mph N/A   Clear
12:56 PM 68.0 °F - 39.0 °F 35% 29.95 in 10.0 mi South 11.5 mph 17.3 mph N/A   Clear
1:56 PM 70.0 °F - 37.0 °F 30% 29.91 in 10.0 mi SSE 8.1 mph 20.7 mph N/A   Clear
2:56 PM 68.0 °F - 34.0 °F 28% 29.89 in 10.0 mi SSE 9.2 mph 18.4 mph N/A   Clear
3:56 PM 64.9 °F - 36.0 °F 34% 29.87 in 10.0 mi Calm Calm - N/A   Clear
4:56 PM 59.0 °F - 36.0 °F 42% 29.86 in 10.0 mi SE 3.5 mph - N/A   Clear
5:56 PM 61.0 °F - 35.1 °F 38% 29.83 in 10.0 mi SSE 3.5 mph - N/A   Clear
6:56 PM 61.0 °F - 37.0 °F 41% 29.82 in 10.0 mi SSE 4.6 mph - N/A   Clear
7:56 PM 63.0 °F - 34.0 °F 34% 29.79 in 10.0 mi SSE 9.2 mph - N/A   Clear
8:56 PM 63.0 °F - 32.0 °F 31% 29.76 in 10.0 mi SSE 15.0 mph 26.5 mph N/A   Partly Cloudy
9:56 PM 62.1 °F - 30.9 °F 31% 29.77 in 10.0 mi South 9.2 mph 20.7 mph N/A   Mostly Cloudy
10:56 PM 61.0 °F - 30.9 °F 32% 29.78 in 10.0 mi Variable 6.9 mph 19.6 mph N/A   Overcast
11:56 PM 61.0 °F - 30.0 °F 31% 29.79 in 10.0 mi South 8.1 mph 18.4 mph N/A   Overcast